Regional Weather Roundup
Issued by NWS

Home | Current Version | Previous Version | Text Only | Print | Product List | Glossary Off
Versions: 1 2 3 4 5 6 7 8 9 10 11 12 13 14 15 16 17 18 19 20 21 22 23 24 25 26 27 28 29 30 31 32 33 34 35 36 37 38 39 40 41 42 43 44 45 46 47 48 49 50

000
ASUS43 KLMK 070310
RWRKY
KENTUCKY REGIONAL WEATHER ROUNDUP
NATIONAL WEATHER SERVICE LOUISVILLE KY
1000 PM EST FRI MAR 06 2015

NOTE "FAIR" INDICATES FEW OR NO CLOUDS BELOW 12,000 FEET
WITH NO SIGNIFICANT WEATHER AND/OR OBSTRUCTIONS TO VISIBILITY.

KYZ001>023-026-027-061>063-070>075-070400-
WESTERN AND SOUTH CENTRAL KENTUCKY

CITY           SKY/WX    TMP DP  RH WIND       PRES   REMARKS
PADUCAH        PTCLDY    22  11  62 S3        30.45R
HENDERSON      CLEAR     23   9  54 S10       30.42S WCI  12
OWENSBORO      CLEAR     22  10  59 S10       30.43F WCI  11
HOPKINSVILLE   PTCLDY    23  15  72 S2        30.45R
BOWLING GREEN  CLEAR     19  11  70 CALM      30.46S
GLASGOW        CLEAR     21  18  88 CALM      30.45S
$$

KYZ024-025-028>034-038-045-046-053-070400-
NORTH CENTRAL KENTUCKY

CITY           SKY/WX    TMP DP  RH WIND       PRES   REMARKS
LOUISVILLE/SDF CLEAR     27  15  61 S9        30.42R WCI  18
LOUISVILLE/LOU CLEAR     26  15  63 S6        30.42R WCI  19
FORT KNOX      CLEAR     22  12  64 S9        30.40R WCI  12
$$

KYZ035>037-039>044-047>052-055>060-089>105-070400-
NORTHEAST KENTUCKY

CITY           SKY/WX    TMP DP  RH WIND       PRES   REMARKS
LEXINGTON      CLEAR     19   9  65 SW9       30.41R WCI   8
COVINGTON        N/A     22  12  65 S10       30.36F WCI  11
FRANKFORT      CLEAR     21  11  65 S6        30.40R WCI  13
$$

KYZ054-064>069-076>088-106>120-070400-
SOUTHEAST KENTUCKY

CITY           SKY/WX    TMP DP  RH WIND       PRES   REMARKS
JACKSON        CLEAR     25  11  55 SW5       30.39R WCI  19
LONDON         CLEAR     24  12  60 CALM      30.41S
SOMERSET       CLEAR     23  18  80 CALM      30.45S
MIDDLESBORO    CLEAR     26  22  87 CALM      30.44R
MONTICELLO     CLEAR     14  11  88 CALM      30.47R
$$



USA.gov is the U.S. government's official web portal to all federal, state and local government web resources and services.